AVA9283 SKRG-SKCL

Flight info

Callsign AVA9283
Flight time 0h 41m
Altitude 30000
Route RNG2B RNG DCT ISVON DCT MATRO DCT PEI DCT ULQ ULQ2G
Aircraft A320/M-SDE3FGHIRWY/LB1

Departure

Time 2026-04-23 22:37
Airport Jose Maria Córdova International Airport (SKRG)

Arrival

Time 2026-04-23 23:18
Airport Alfonso Bonilla Aragon International Airport (SKCL)
Time Latitude Longitude Altitude Speed Heading
2026-04-23 22:21 6.17140 -75.42687 7019 ft 0 kts 270°
2026-04-23 22:28 6.17140 -75.42671 7022 ft 4 kts 268°
2026-04-23 22:29 6.17141 -75.42645 7022 ft 4 kts 266°
2026-04-23 22:29 6.17147 -75.42622 7019 ft 4 kts 221°
2026-04-23 22:29 6.17169 -75.42615 7018 ft 4 kts 172°
2026-04-23 22:29 6.17193 -75.42618 7020 ft 1 kts 179°
2026-04-23 22:30 6.17217 -75.42618 7019 ft 4 kts 179°
2026-04-23 22:30 6.17244 -75.42618 7018 ft 4 kts 179°
2026-04-23 22:30 6.17245 -75.42618 7018 ft 0 kts 179°
2026-04-23 22:31 6.17229 -75.42618 7019 ft 8 kts 179°
2026-04-23 22:31 6.17133 -75.42616 7020 ft 17 kts 179°
2026-04-23 22:31 6.17037 -75.42592 7018 ft 13 kts 148°
2026-04-23 22:32 6.16947 -75.42537 7013 ft 17 kts 149°
2026-04-23 22:32 6.16822 -75.42486 6996 ft 17 kts 186°
2026-04-23 22:32 6.16684 -75.42480 6994 ft 23 kts 180°
2026-04-23 22:32 6.16505 -75.42481 6983 ft 28 kts 179°
2026-04-23 22:33 6.16295 -75.42478 6980 ft 32 kts 179°
2026-04-23 22:33 6.16064 -75.42476 6976 ft 34 kts 180°
2026-04-23 22:33 6.15823 -75.42475 6975 ft 35 kts 179°
2026-04-23 22:33 6.15580 -75.42473 6976 ft 35 kts 180°
2026-04-23 22:34 6.15338 -75.42472 6977 ft 35 kts 180°
2026-04-23 22:34 6.15096 -75.42471 6978 ft 35 kts 179°
2026-04-23 22:34 6.14922 -75.42468 6977 ft 16 kts 170°
2026-04-23 22:34 6.14886 -75.42412 6976 ft 0 kts 88°
2026-04-23 22:35 6.14886 -75.42411 6976 ft 0 kts 88°
2026-04-23 22:35 6.14890 -75.42370 6976 ft 12 kts 80°
2026-04-23 22:35 6.14952 -75.42307 6977 ft 14 kts 26°
2026-04-23 22:35 6.15005 -75.42299 6978 ft 1 kts 357°
2026-04-23 22:36 6.15055 -75.42301 6979 ft 23 kts 358°
2026-04-23 22:36 6.15457 -75.42304 6982 ft 92 kts
2026-04-23 22:36 6.16301 -75.42308 6981 ft 148 kts 359°
2026-04-23 22:36 6.17464 -75.42300 7207 ft 175 kts
2026-04-23 22:37 6.18649 -75.42292 8078 ft 166 kts
2026-04-23 22:37 6.19785 -75.42268 8528 ft 167 kts 358°
2026-04-23 22:37 6.20992 -75.42260 8797 ft 183 kts
2026-04-23 22:37 6.22207 -75.41721 8954 ft 208 kts 47°
2026-04-23 22:38 6.22730 -75.40350 9298 ft 220 kts 93°
2026-04-23 22:38 6.22211 -75.38910 9808 ft 223 kts 124°
2026-04-23 22:38 6.21332 -75.37615 10312 ft 227 kts 128°
2026-04-23 22:38 6.20410 -75.36318 10824 ft 228 kts 128°
2026-04-23 22:39 6.19476 -75.34999 11116 ft 234 kts 127°
2026-04-23 22:39 6.18550 -75.33668 11185 ft 231 kts 127°
2026-04-23 22:39 6.17618 -75.32342 11454 ft 233 kts 132°
2026-04-23 22:39 6.16293 -75.31435 11789 ft 239 kts 169°
2026-04-23 22:40 6.14615 -75.31543 11926 ft 254 kts 207°
2026-04-23 22:40 6.13250 -75.32722 12177 ft 272 kts 237°
2026-04-23 22:40 6.10659 -75.35863 12650 ft 320 kts 214°
2026-04-23 22:41 6.08685 -75.37025 13020 ft 337 kts 208°
2026-04-23 22:41 6.06552 -75.38046 13667 ft 342 kts 205°
2026-04-23 22:41 6.04361 -75.39009 14348 ft 346 kts 205°
2026-04-23 22:41 6.02141 -75.39975 14948 ft 349 kts 205°
2026-04-23 22:42 5.99905 -75.40974 15531 ft 354 kts 205°
2026-04-23 22:42 5.97639 -75.41963 16140 ft 357 kts 201°
2026-04-23 22:42 5.95278 -75.42776 16750 ft 360 kts 199°
2026-04-23 22:42 5.92898 -75.43606 17328 ft 364 kts 200°
2026-04-23 22:43 5.90491 -75.44451 17900 ft 368 kts 200°
2026-04-23 22:43 5.88061 -75.45304 18470 ft 371 kts 200°
2026-04-23 22:43 5.85613 -75.46161 18974 ft 374 kts 200°
2026-04-23 22:43 5.83142 -75.47022 19442 ft 378 kts 200°
2026-04-23 22:44 5.80648 -75.47891 19938 ft 381 kts 200°
2026-04-23 22:44 5.78138 -75.48766 20476 ft 384 kts 200°
2026-04-23 22:44 5.75602 -75.49649 20968 ft 388 kts 200°
2026-04-23 22:44 5.73041 -75.50539 21454 ft 391 kts 200°
2026-04-23 22:45 5.70461 -75.51438 21983 ft 394 kts 200°
2026-04-23 22:45 5.67856 -75.52346 22489 ft 398 kts 200°
2026-04-23 22:45 5.65227 -75.53261 22989 ft 402 kts 201°
2026-04-23 22:45 5.62574 -75.54184 23491 ft 405 kts 201°
2026-04-23 22:46 5.59899 -75.55113 23933 ft 408 kts 201°
2026-04-23 22:46 5.57205 -75.56049 24350 ft 411 kts 201°
2026-04-23 22:46 5.54493 -75.56992 24770 ft 413 kts 201°
2026-04-23 22:46 5.52687 -75.57620 25042 ft 415 kts 200°
2026-04-23 22:47 5.49052 -75.58884 25522 ft 420 kts 200°
2026-04-23 22:47 5.46284 -75.59848 25902 ft 422 kts 199°
2026-04-23 22:47 5.43501 -75.60815 26308 ft 425 kts 199°
2026-04-23 22:47 5.41615 -75.61470 26561 ft 426 kts 199°
2026-04-23 22:48 5.38804 -75.62447 26939 ft 429 kts 198°
2026-04-23 22:48 5.35978 -75.63430 27305 ft 431 kts 199°
2026-04-23 22:48 5.33138 -75.64420 27656 ft 433 kts 198°
2026-04-23 22:48 5.30281 -75.65416 28033 ft 436 kts 197°
2026-04-23 22:49 5.27412 -75.66416 28409 ft 438 kts 198°
2026-04-23 22:49 5.24526 -75.67421 28755 ft 440 kts 198°
2026-04-23 22:49 5.21623 -75.68433 29102 ft 443 kts 197°
2026-04-23 22:49 5.18705 -75.69450 29442 ft 445 kts 197°
2026-04-23 22:50 5.15771 -75.70470 29780 ft 447 kts 198°
2026-04-23 22:50 5.12836 -75.71492 30074 ft 446 kts 198°
2026-04-23 22:50 5.09951 -75.72501 30118 ft 431 kts 198°
2026-04-23 22:50 5.07174 -75.73474 30115 ft 415 kts 198°
2026-04-23 22:51 5.04471 -75.74421 30110 ft 409 kts 198°
2026-04-23 22:51 4.99126 -75.76286 30092 ft 406 kts 198°
2026-04-23 22:52 4.93796 -75.78148 30064 ft 405 kts 198°
2026-04-23 22:52 4.88492 -75.80000 30057 ft 408 kts 198°
2026-04-23 22:53 4.83120 -75.81872 30056 ft 409 kts 198°
2026-04-23 22:53 4.77788 -75.83842 30050 ft 408 kts 205°
2026-04-23 22:54 4.72829 -75.86613 30048 ft 408 kts 208°
2026-04-23 22:54 4.67885 -75.89387 30038 ft 407 kts 208°
2026-04-23 22:55 4.62945 -75.92156 30006 ft 406 kts 208°
2026-04-23 22:55 4.57976 -75.94943 29975 ft 406 kts 209°
2026-04-23 22:56 4.53049 -75.97711 29980 ft 406 kts 209°
2026-04-23 22:56 4.48118 -76.00487 29989 ft 406 kts 208°
2026-04-23 22:57 4.43218 -76.03244 30003 ft 407 kts 208°
2026-04-23 22:57 4.38271 -76.06024 29998 ft 408 kts 208°
2026-04-23 22:57 4.35789 -76.07418 29667 ft 408 kts 208°
2026-04-23 22:58 4.33320 -76.08803 29181 ft 405 kts 208°
2026-04-23 22:58 4.30875 -76.10174 28728 ft 401 kts 208°
2026-04-23 22:58 4.28452 -76.11534 28286 ft 397 kts 208°
2026-04-23 22:58 4.26050 -76.12881 27838 ft 394 kts 208°
2026-04-23 22:59 4.23663 -76.14219 27393 ft 391 kts 208°
2026-04-23 22:59 4.21293 -76.15549 26939 ft 389 kts 208°
2026-04-23 22:59 4.18908 -76.16886 26484 ft 386 kts 208°
2026-04-23 22:59 4.16573 -76.18195 26024 ft 384 kts 209°
2026-04-23 23:00 4.14244 -76.19500 25578 ft 383 kts 209°
2026-04-23 23:00 4.11926 -76.20800 25103 ft 381 kts 209°
2026-04-23 23:00 4.09531 -76.21925 24589 ft 380 kts 199°
2026-04-23 23:00 4.07002 -76.22538 24095 ft 379 kts 187°
2026-04-23 23:01 4.04376 -76.22796 23602 ft 379 kts 185°
2026-04-23 23:01 4.01751 -76.23045 23045 ft 378 kts 186°
2026-04-23 23:01 3.99137 -76.23298 22554 ft 376 kts 186°
2026-04-23 23:01 3.96548 -76.23551 22070 ft 374 kts 186°
2026-04-23 23:02 3.93954 -76.23805 21807 ft 362 kts 186°
2026-04-23 23:02 3.91517 -76.24044 21217 ft 353 kts 186°
2026-04-23 23:02 3.89092 -76.24279 20556 ft 347 kts 186°
2026-04-23 23:02 3.86671 -76.24514 19396 ft 355 kts 187°
2026-04-23 23:03 3.84168 -76.24759 18126 ft 367 kts 186°
2026-04-23 23:03 3.81590 -76.25008 16639 ft 377 kts 186°
2026-04-23 23:03 3.78942 -76.25262 15134 ft 387 kts 186°
2026-04-23 23:03 3.76252 -76.25519 14067 ft 385 kts 186°
2026-04-23 23:04 3.73644 -76.25769 13522 ft 366 kts 186°
2026-04-23 23:04 3.71201 -76.26006 13250 ft 341 kts 186°
2026-04-23 23:04 3.68914 -76.26228 12969 ft 321 kts 186°
2026-04-23 23:04 3.66734 -76.26441 12986 ft 315 kts 187°
2026-04-23 23:05 3.64560 -76.26685 12736 ft 312 kts 188°
2026-04-23 23:05 3.62414 -76.26955 12484 ft 309 kts 188°
2026-04-23 23:05 3.60288 -76.27230 12136 ft 307 kts 188°
2026-04-23 23:05 3.58178 -76.27505 11777 ft 305 kts 188°
2026-04-23 23:06 3.56080 -76.27777 11416 ft 303 kts 188°
2026-04-23 23:06 3.53995 -76.28043 11092 ft 301 kts 188°
2026-04-23 23:06 3.51923 -76.28303 10744 ft 299 kts 188°
2026-04-23 23:06 3.49865 -76.28562 10398 ft 297 kts 188°
2026-04-23 23:07 3.47843 -76.28979 10068 ft 296 kts 193°
2026-04-23 23:07 3.45840 -76.29422 9892 ft 293 kts 192°
2026-04-23 23:07 3.43844 -76.29860 9773 ft 293 kts 192°
2026-04-23 23:07 3.41876 -76.30292 9641 ft 284 kts 192°
2026-04-23 23:08 3.39984 -76.30709 9511 ft 273 kts 192°
2026-04-23 23:08 3.38165 -76.31110 9384 ft 262 kts 192°
2026-04-23 23:08 3.36417 -76.31498 9252 ft 252 kts 192°
2026-04-23 23:08 3.34742 -76.31870 9140 ft 242 kts 192°
2026-04-23 23:09 3.33098 -76.32235 8538 ft 246 kts 192°
2026-04-23 23:09 3.31368 -76.32619 7545 ft 263 kts 192°
2026-04-23 23:09 3.29569 -76.33015 6974 ft 261 kts 192°
2026-04-23 23:09 3.27838 -76.33397 6803 ft 250 kts 192°
2026-04-23 23:10 3.26255 -76.33980 6675 ft 239 kts 217°
2026-04-23 23:10 3.25313 -76.35265 6563 ft 227 kts 254°
2026-04-23 23:10 3.25300 -76.36779 6439 ft 214 kts 284°
2026-04-23 23:10 3.25637 -76.38206 6384 ft 206 kts 282°
2026-04-23 23:11 3.25931 -76.39543 6405 ft 191 kts 284°
2026-04-23 23:11 3.26455 -76.40760 6380 ft 191 kts 304°
2026-04-23 23:11 3.27371 -76.41715 6374 ft 191 kts 324°
2026-04-23 23:11 3.28565 -76.42288 6373 ft 191 kts 345°
2026-04-23 23:12 3.29884 -76.42400 6379 ft 191 kts
2026-04-23 23:12 3.31189 -76.42184 6378 ft 191 kts 10°
2026-04-23 23:12 3.32501 -76.41955 6381 ft 191 kts 10°
2026-04-23 23:12 3.33813 -76.41727 6379 ft 191 kts 10°
2026-04-23 23:13 3.35121 -76.41500 6399 ft 191 kts 10°
2026-04-23 23:13 3.36433 -76.41272 6238 ft 191 kts 10°
2026-04-23 23:13 3.37712 -76.41051 6013 ft 177 kts 10°
2026-04-23 23:13 3.38866 -76.40850 5795 ft 160 kts 10°
2026-04-23 23:14 3.39934 -76.40669 5575 ft 152 kts
2026-04-23 23:14 3.40962 -76.40496 5367 ft 148 kts
2026-04-23 23:14 3.41971 -76.40319 5202 ft 147 kts
2026-04-23 23:14 3.42975 -76.40144 5045 ft 146 kts
2026-04-23 23:15 3.43976 -76.39973 4876 ft 145 kts
2026-04-23 23:15 3.44969 -76.39802 4740 ft 144 kts
2026-04-23 23:15 3.45958 -76.39624 4534 ft 144 kts
2026-04-23 23:15 3.46946 -76.39455 4395 ft 144 kts
2026-04-23 23:16 3.47930 -76.39273 4174 ft 143 kts
2026-04-23 23:16 3.48908 -76.39100 3973 ft 143 kts
2026-04-23 23:16 3.49882 -76.38936 3784 ft 141 kts
2026-04-23 23:16 3.50848 -76.38769 3584 ft 141 kts
2026-04-23 23:17 3.51817 -76.38596 3447 ft 141 kts
2026-04-23 23:17 3.52785 -76.38431 3245 ft 140 kts
2026-04-23 23:17 3.53709 -76.38280 3163 ft 119 kts
2026-04-23 23:17 3.54352 -76.38168 3165 ft 73 kts 11°
2026-04-23 23:18 3.54693 -76.38112 3165 ft 38 kts
2026-04-23 23:18 3.54944 -76.38063 3166 ft 36 kts
2026-04-23 23:18 3.55094 -76.38082 3167 ft 16 kts 297°
2026-04-23 23:18 3.55094 -76.38189 3168 ft 16 kts 224°
2026-04-23 23:19 3.54988 -76.38221 3168 ft 16 kts 186°
2026-04-23 23:19 3.54884 -76.38235 3167 ft 14 kts 189°
2026-04-23 23:19 3.54790 -76.38250 3167 ft 13 kts 190°
2026-04-23 23:19 3.54697 -76.38266 3166 ft 17 kts 189°
2026-04-23 23:20 3.54541 -76.38291 3166 ft 28 kts 189°
2026-04-23 23:20 3.54313 -76.38332 3165 ft 38 kts 190°
2026-04-23 23:20 3.54091 -76.38379 3165 ft 23 kts 202°
2026-04-23 23:20 3.53945 -76.38496 3163 ft 32 kts 220°
2026-04-23 23:21 3.53807 -76.38585 3162 ft 19 kts 179°
2026-04-23 23:21 3.53680 -76.38514 3162 ft 20 kts 169°
2026-04-23 23:21 3.53640 -76.38543 3162 ft 9 kts 263°
2026-04-23 23:21 3.53645 -76.38604 3162 ft 4 kts 284°
2026-04-23 23:22 3.53646 -76.38609 3162 ft 0 kts 282°